User: anonymous   Login
Location: Unspecified
(0.0000°N, 0.0000°E)
Time: 06:18:37
(UTC+01:00)
Language:

Delta 168 - Orbit

View from above orbital plane
View from above orbital plane
View from above satellite
View from above satellite

Ground track
Ground track

The orbit data is extracted from the following two-line orbital elements,

1 14051U 83041B   14329.14980274  .00004829  00000-0  46766-3 0  6577
2 14051 025.3325 318.0720 1122089 069.1119 005.8475 13.02836652456060
Epoch (UTC): 25 November 2014 03:35:42
Eccentricity: 0.1122089
inclination: 25.3325°
perigee height: 395 km
apogee height: 2107 km
right ascension of ascending node: 318.0720°
argument of perigee: 69.1119°
revolutions per day: 13.02836652
mean anomaly at epoch: 5.8475°
orbit number at epoch: 45606

The dashed part of the orbit path shows where the satellite is in the earth's shadow,  

DLR